Regional Weather Roundup
Issued by NWS State College, PA

Home | Current Version | Previous Version | Graphics & Text | Print | Product List | Glossary Off
Versions: 1 2 3 4 5 6 7 8 9 10 11 12 13 14 15 16 17 18 19 20 21 22 23 24 25 26 27 28 29 30 31 32 33 34 35 36 37 38 39 40 41 42 43 44 45 46 47 48 49 50

000
ASUS41 KCTP 051810
RWRCTP

REGIONAL WEATHER ROUNDUP
NATIONAL WEATHER SERVICE STATE COLLEGE PA
100 PM EST THU MAR 05 2015

Note: "fair" indicates few or no clouds below 12,000 feet with no
significant weather and/or obstructions to visibility.

* = STATION THAT DOES NOT REPORT PRECIPITATION /E.G. RAIN...SNOW...ETC/
    THUNDER OR FOG.

PAZ002>004-007>009-013>016-020>023-029>032-051900-
WESTERN PENNSYLVANIA

CITY           SKY/WX    TMP DP  RH WIND       PRES   REMARKS
ERIE           FAIR      11  -2  56 NW10      30.35S WCI  -3
MEADVILLE      FAIR      11  -1  58 N12       30.25F WCI  -3
FRANKLIN*      FAIR      10  -4  52 N8        30.24F WCI  -1
NEW CASTLE     FAIR      13  -1  53 N10       30.29F WCI   0
BEAVER COUNTY  CLOUDY    14   0  52 NW7       30.27R WCI   4
BUTLER*        FAIR      16   0  48 NW6       30.26F WCI   7
PITTSBURGH INT CLOUDY    16   3  56 NW7       30.26R WCI   6
PITTSBURGH     CLOUDY    16   4  59 NW7       30.23S WCI   6
INDIANA*       CLOUDY    16   5  62 NW9       30.26R WCI   4
LATROBE        PTSUNNY   16   7  67 N9        30.27R WCI   4
WASHINGTON CO* PTSUNNY   18   7  62 NW6       30.26S WCI   9
$$

PAZ004>006-010>012-017>019-024>028-033>037-041-042-045-046-049>053-051900-
CENTRAL PENNSYLVANIA

CITY           SKY/WX    TMP DP  RH WIND       PRES   REMARKS
BRADFORD         N/A    N/A N/A N/A MISG      30.12F
DUBOIS         CLOUDY    13  -4  46 N8        30.15S WCI   2
CLEARFIELD     CLOUDY    15  -5  40 N10       30.17S WCI   2
JOHNSTOWN      LGT SNOW  12   6  77 NW16      30.11R WCI  -5
ALTOONA        LGT SNOW  17  10  74 NW13      30.17R WCI   4
STATE COLLEGE  CLOUDY    19   0  42 N9        30.17S WCI   9
WILLIAMSPORT   CLOUDY    20   0  41 NW10      30.22S WCI   9
SELINSGROVE    LGT SNOW  20   9  62 NE13      30.22S WCI   7
FT INDIANTOWN  CLOUDY    21  10  62 VRB6      30.20R WCI  14
CAPITAL CITY   CLOUDY    22  16  78 N6        30.20S WCI  14
HARRISBURG     LGT SNOW  21  16  81 N8        30.21R WCI  11
YORK           SNOW      22  19  89 N7        30.18S VSB 1/2 WCI  13
$$

PAZ038>040-043-044-047-048-054-055-060>062-067>071-051900-
EASTERN PENNSYLVANIA

CITY           SKY/WX    TMP DP  RH WIND       PRES   REMARKS
SCRANTON       CLOUDY    18   1  47 N14       30.14F WCI   4
MOUNT POCONO   CLOUDY    15   0  51 NW9       30.03F WCI   3
ALLENTOWN      LGT SNOW  19  14  79 CALM      30.18F
QUAKERTOWN*    CLOUDY    19  18  93 N3        30.18F VSB 1/2
READING        LGT SNOW  20  16  84 N7        30.19F VSB 1   WCI  11
LANCASTER      SNOW      21  17  84 N13       30.18S VSB 1/2 WCI   9
COATESVILLE    SNOW      25  23  93 N13       30.15F VSB 1/2 WCI  13
POTTSTOWN      LGT SNOW  20  18  92 NW12      30.18F VSB 3/4 WCI   8
BLUE BELL      CLOUDY    27  23  86 N3        30.16F VSB 1/2
DOYLESTOWN     SNOW      20  18  92 N10G21    30.17F VSB 1/2 WCI   9
WILLOW GROVE   NOT AVBL
NORTH PHILA    LGT SNOW  26  23  88 N13       30.18F VSB 3/4 WCI  15
PHILADELPHIA   LGT SNOW  27  23  85 N14       30.16F VSB 3/4
$$



USA.gov is the U.S. government's official web portal to all federal, state and local government web resources and services.